When you browse on this site, cookies collect data to enhance your experience and personalize the content and advertising you see.
Visit our Privacy Policy to learn more. By continuing to use the site, you agree to this use of cookies and data.
  • En España
  • Lista de países
  • Para 7 días
  • Temperatura del agua
  • Mapa Satelital
  • El tiempo en el mapa
  • Informadores
  • user-avatar
    Iniciar sesión

    Tiempo cada hora Istria

    Hoy, 26 Junio, Miércoles

    Tiempo Temperatura Precipitaciones Viento Presión Humedad
    00:00 +25°C° 0 mm 5 mps 759 mmHg 72%
    01:00 +25°C° 0 mm 5 mps 759 mmHg 74%
    02:00 +25°C° 0 mm 5 mps 759 mmHg 74%
    03:00 +23°C° 0 mm 4 mps 758 mmHg 75%
    04:00 +23°C° 0 mm 4 mps 758 mmHg 75%
    05:00 +25°C° 0 mm 4 mps 758 mmHg 72%
    06:00 +27°C° 0 mm 4 mps 758 mmHg 68%
    07:00 +28°C° 0 mm 4 mps 758 mmHg 65%
    08:00 +29°C° 0 mm 3 mps 758 mmHg 59%
    09:00 +31°C° 0 mm 3 mps 758 mmHg 53%
    10:00 +33°C° 0 mm 3 mps 759 mmHg 47%
    11:00 +34°C° 0 mm 2 mps 758 mmHg 46%
    12:00 +34°C° 0 mm 2 mps 758 mmHg 46%
    13:00 +35°C° 0 mm 2 mps 758 mmHg 45%
    14:00 +35°C° 0 mm 2 mps 758 mmHg 46%
    15:00 +35°C° 0 mm 2 mps 757 mmHg 47%
    16:00 +35°C° 0 mm 2 mps 757 mmHg 49%
    17:00 +32°C° 0 mm 2 mps 757 mmHg 55%
    18:00 +30°C° 0 mm 2 mps 757 mmHg 62%
    19:00 +29°C° 0 mm 2 mps 757 mmHg 69%
    20:00 +28°C° 0 mm 3 mps 757 mmHg 68%
    21:00 +28°C° 0 mm 3 mps 757 mmHg 66%
    22:00 +27°C° 0 mm 3 mps 757 mmHg 65%
    23:00 +27°C° 0 mm 3 mps 757 mmHg 66%

    Mañana, 27 Junio, Jueves

    Tiempo Temperatura Precipitaciones Viento Presión Humedad
    00:00 +26°C° 0 mm 3 mps 757 mmHg 66%
    01:00 +26°C° 0 mm 3 mps 757 mmHg 67%
    02:00 +26°C° 0 mm 3 mps 757 mmHg 68%
    03:00 +26°C° 0 mm 3 mps 757 mmHg 69%
    04:00 +26°C° 0 mm 3 mps 756 mmHg 70%
    05:00 +27°C° 0 mm 3 mps 756 mmHg 68%
    06:00 +28°C° 0 mm 3 mps 756 mmHg 67%
    07:00 +30°C° 0 mm 3 mps 756 mmHg 65%
    08:00 +31°C° 0 mm 3 mps 756 mmHg 59%
    09:00 +34°C° 0 mm 3 mps 755 mmHg 53%
    10:00 +36°C° 0 mm 3 mps 755 mmHg 47%
    11:00 +37°C° 0 mm 3 mps 755 mmHg 45%
    12:00 +37°C° 0 mm 4 mps 754 mmHg 43%
    13:00 +38°C° 0 mm 4 mps 754 mmHg 41%
    14:00 +37°C° 0 mm 4 mps 754 mmHg 43%
    15:00 +36°C° 0 mm 4 mps 753 mmHg 44%
    16:00 +36°C° 0 mm 4 mps 753 mmHg 45%
    17:00 +34°C° 0 mm 3 mps 753 mmHg 52%
    18:00 +33°C° 0 mm 3 mps 752 mmHg 58%
    19:00 +30°C° 0 mm 3 mps 752 mmHg 65%
    20:00 +29°C° 0 mm 2 mps 752 mmHg 63%
    21:00 +29°C° 0 mm 2 mps 752 mmHg 62%
    22:00 +28°C° 0 mm 2 mps 753 mmHg 60%
    23:00 +28°C° 0 mm 3 mps 753 mmHg 65%

    Pasado mañana, 28 Junio, Viernes

    Tiempo Temperatura Precipitaciones Viento Presión Humedad
    00:00 +27°C° 0 mm 5 mps 753 mmHg 71%
    01:00 +27°C° 0 mm 7 mps 753 mmHg 76%
    02:00 +26°C° 0 mm 8 mps 753 mmHg 72%
    03:00 +24°C° 0 mm 9 mps 753 mmHg 67%
    04:00 +24°C° 0 mm 10 mps 753 mmHg 63%
    05:00 +24°C° 0 mm 10 mps 753 mmHg 59%
    06:00 +24°C° 0 mm 10 mps 753 mmHg 56%
    07:00 +24°C° 0 mm 9 mps 753 mmHg 52%
    08:00 +26°C° 0 mm 9 mps 754 mmHg 50%
    09:00 +27°C° 0 mm 8 mps 754 mmHg 48%
    10:00 +29°C° 0 mm 8 mps 754 mmHg 46%
    11:00 +29°C° 0 mm 7 mps 754 mmHg 46%
    12:00 +30°C° 0 mm 6 mps 754 mmHg 45%
    13:00 +32°C° 0 mm 5 mps 753 mmHg 44%
    14:00 +32°C° 0 mm 5 mps 753 mmHg 45%
    15:00 +32°C° 0 mm 5 mps 753 mmHg 45%
    16:00 +32°C° 0 mm 5 mps 753 mmHg 45%
    17:00 +29°C° 0 mm 5 mps 753 mmHg 49%
    18:00 +28°C° 0 mm 6 mps 753 mmHg 54%
    19:00 +27°C° 0 mm 6 mps 753 mmHg 58%
    20:00 +26°C° 0 mm 7 mps 754 mmHg 59%
    21:00 +26°C° 0 mm 7 mps 754 mmHg 61%
    22:00 +24°C° 0 mm 7 mps 755 mmHg 62%
    23:00 +23°C° 0 mm 7 mps 755 mmHg 61%

    29 Junio, Sábado

    Tiempo Temperatura Precipitaciones Viento Presión Humedad
    00:00 +23°C° 0 mm 8 mps 755 mmHg 59%
    01:00 +23°C° 0 mm 8 mps 755 mmHg 58%
    02:00 +23°C° 0 mm 8 mps 755 mmHg 57%
    03:00 +23°C° 0 mm 8 mps 755 mmHg 55%
    04:00 +22°C° 0 mm 8 mps 755 mmHg 54%
    05:00 +23°C° 0 mm 7 mps 755 mmHg 55%
    06:00 +23°C° 0 mm 7 mps 755 mmHg 56%
    07:00 +24°C° 0 mm 7 mps 755 mmHg 57%
    08:00 +26°C° 0 mm 7 mps 755 mmHg 54%
    09:00 +27°C° 0 mm 6 mps 755 mmHg 50%
    10:00 +28°C° 0 mm 6 mps 756 mmHg 47%
    11:00 +29°C° 0 mm 5 mps 755 mmHg 46%
    12:00 +29°C° 0 mm 5 mps 755 mmHg 44%
    13:00 +30°C° 0 mm 4 mps 755 mmHg 43%
    14:00 +30°C° 0 mm 4 mps 755 mmHg 43%
    15:00 +30°C° 0 mm 3 mps 755 mmHg 43%
    16:00 +30°C° 0 mm 3 mps 755 mmHg 43%
    17:00 +29°C° 0 mm 3 mps 755 mmHg 50%
    18:00 +27°C° 0 mm 3 mps 755 mmHg 58%
    19:00 +26°C° 0 mm 3 mps 755 mmHg 65%
    20:00 +25°C° 0 mm 4 mps 755 mmHg 66%
    21:00 +23°C° 0 mm 4 mps 755 mmHg 67%
    22:00 +22°C° 0 mm 4 mps 756 mmHg 68%
    23:00 +22°C° 0 mm 5 mps 756 mmHg 69%

    30 Junio, Domingo

    Tiempo Temperatura Precipitaciones Viento Presión Humedad
    00:00 +21°C° 0 mm 5 mps 756 mmHg 69%
    01:00 +21°C° 0 mm 5 mps 756 mmHg 69%
    02:00 +20°C° 0 mm 5 mps 755 mmHg 68%
    03:00 +20°C° 0 mm 4 mps 755 mmHg 67%
    04:00 +20°C° 0 mm 4 mps 755 mmHg 66%
    05:00 +21°C° 0 mm 4 mps 755 mmHg 63%
    06:00 +22°C° 0 mm 3 mps 755 mmHg 60%
    07:00 +25°C° 0 mm 3 mps 756 mmHg 57%
    08:00 +27°C° 0 mm 3 mps 756 mmHg 53%
    09:00 +28°C° 0 mm 2 mps 756 mmHg 48%
    10:00 +30°C° 0 mm 2 mps 756 mmHg 44%
    11:00 +31°C° 0 mm 2 mps 756 mmHg 43%
    12:00 +31°C° 0 mm 2 mps 756 mmHg 42%
    13:00 +32°C° 0 mm 2 mps 755 mmHg 41%
    14:00 +31°C° 0 mm 2 mps 755 mmHg 46%
    15:00 +31°C° 0 mm 3 mps 755 mmHg 50%
    16:00 +30°C° 0 mm 3 mps 755 mmHg 55%
    17:00 +29°C° 0 mm 3 mps 755 mmHg 61%
    18:00 +28°C° 0 mm 2 mps 755 mmHg 67%
    19:00 +27°C° 0 mm 2 mps 755 mmHg 74%
    20:00 +26°C° 0 mm 2 mps 755 mmHg 74%
    21:00 +25°C° 0 mm 2 mps 755 mmHg 74%
    22:00 +24°C° 0 mm 2 mps 755 mmHg 74%
    23:00 +24°C° 0 mm 2 mps 755 mmHg 73%

    1 Julio, Lunes

    Tiempo Temperatura Precipitaciones Viento Presión Humedad
    00:00 +24°C° 0 mm 1 mps 755 mmHg 72%
    01:00 +24°C° 0 mm 1 mps 755 mmHg 72%
    02:00 +23°C° 0 mm 1 mps 755 mmHg 73%
    03:00 +23°C° 0 mm 1 mps 755 mmHg 73%
    04:00 +23°C° 0 mm 1 mps 754 mmHg 74%
    05:00 +24°C° 0 mm 1 mps 754 mmHg 72%
    06:00 +24°C° 0 mm 0 mps 754 mmHg 69%
    07:00 +25°C° 0 mm 0 mps 754 mmHg 67%
    08:00 +26°C° 0 mm 0 mps 754 mmHg 62%
    09:00 +30°C° 0 mm 1 mps 754 mmHg 57%
    10:00 +31°C° 0 mm 1 mps 754 mmHg 52%
    11:00 +31°C° 0 mm 2 mps 754 mmHg 52%
    12:00 +31°C° 0 mm 2 mps 754 mmHg 52%
    13:00 +31°C° 0 mm 2 mps 754 mmHg 52%
    14:00 +31°C° 0 mm 2 mps 753 mmHg 54%
    15:00 +31°C° 0 mm 3 mps 753 mmHg 56%
    16:00 +30°C° 0 mm 3 mps 752 mmHg 58%
    17:00 +29°C° 0 mm 3 mps 752 mmHg 64%
    18:00 +27°C° 0 mm 3 mps 752 mmHg 71%
    19:00 +26°C° 0 mm 3 mps 752 mmHg 78%
    20:00 +25°C° 0 mm 3 mps 753 mmHg 82%
    21:00 +22°C° 0 mm 3 mps 753 mmHg 85%
    22:00 +21°C° 0 mm 3 mps 753 mmHg 89%
    23:00 +21°C° 0 mm 3 mps 753 mmHg 89%
    Mostrar más